Lake Pat Cleburne Weather Center

Moon Phase Calendar



Lake Pat Cleburne Water Level
Online Cameras

 


      

Current Conditions in Lone Willow
8/1/2021 5:21:03 AM

78°F
Feels Like 80
Clear
Humidity
86%
Pressure
29.56"
Wind
2 mph (SW)
Dew Point
74°F
UV Index
0/10 (Low)
Visibility
6 mi

Hourly Forecast

Date & Time Sun, Aug 1
5:00 AM
Sun, Aug 1
6:00 AM
Sun, Aug 1
7:00 AM
Sun, Aug 1
8:00 AM
Sun, Aug 1
9:00 AM
Sun, Aug 1
10:00 AM
Sun, Aug 1
11:00 AM
Sun, Aug 1
12:00 PM
Sun, Aug 1
1:00 PM
Sun, Aug 1
2:00 PM
Sun, Aug 1
3:00 PM
Sun, Aug 1
4:00 PM
Sun, Aug 1
5:00 PM
Sun, Aug 1
6:00 PM
Sun, Aug 1
7:00 PM
Sun, Aug 1
8:00 PM
Sun, Aug 1
9:00 PM
Sun, Aug 1
10:00 PM
Sun, Aug 1
11:00 PM
Mon, Aug 2
12:00 AM
Mon, Aug 2
1:00 AM
Mon, Aug 2
2:00 AM
Mon, Aug 2
3:00 AM
Mon, Aug 2
4:00 AM
Mon, Aug 2
5:00 AM
Mon, Aug 2
6:00 AM
Mon, Aug 2
7:00 AM
Mon, Aug 2
8:00 AM
Mon, Aug 2
9:00 AM
Mon, Aug 2
10:00 AM
Mon, Aug 2
11:00 AM
Mon, Aug 2
12:00 PM
Mon, Aug 2
1:00 PM
Mon, Aug 2
2:00 PM
Mon, Aug 2
3:00 PM
Mon, Aug 2
4:00 PM
Mon, Aug 2
5:00 PM
Mon, Aug 2
6:00 PM
Mon, Aug 2
7:00 PM
Mon, Aug 2
8:00 PM
Mon, Aug 2
9:00 PM
Mon, Aug 2
10:00 PM
Mon, Aug 2
11:00 PM
Tue, Aug 3
12:00 AM
Tue, Aug 3
1:00 AM
Tue, Aug 3
2:00 AM
Tue, Aug 3
3:00 AM
Tue, Aug 3
4:00 AM
Condition
Clear

Clear

Clear

Rain

Clear

Clear

Clear

Clear

Clear

Clouds

Clouds

Clouds

Clouds

Clouds

Rain

Rain

Rain

Rain

Rain

Rain

Clouds

Clouds

Clouds

Clouds

Clouds

Clouds

Clouds

Clouds

Clouds

Clouds

Clouds

Clouds

Clouds

Clear

Clear

Clouds

Clouds

Clouds

Clouds

Clouds

Clouds

Clouds

Clouds

Clouds

Clouds

Clear

Clear

Clear
Temperature 78°F78°F78°F80°F84°F88°F90°F92°F94°F97°F98°F99°F100°F89°F78°F75°F74°F73°F74°F74°F74°F74°F73°F73°F72°F72°F72°F74°F77°F79°F82°F85°F87°F89°F90°F91°F91°F90°F89°F84°F82°F81°F79°F78°F77°F75°F74°F74°F
Feels Like 80°F80°F80°F80°F89°F94°F95°F97°F99°F100°F101°F101°F101°F93°F79°F77°F75°F74°F74°F74°F75°F75°F74°F74°F73°F73°F73°F75°F77°F79°F85°F87°F89°F91°F92°F92°F92°F91°F90°F85°F83°F82°F79°F78°F76°F75°F74°F74°F
Cloudiness 1%1%1%0%0%0%2%2%1%33%41%49%37%48%57%100%100%100%100%100%100%100%100%100%100%99%99%94%97%98%99%99%98%9%7%12%13%17%20%27%27%24%27%26%23%4%5%5%
Visibility 6 mi6 mi6 mi6 mi6 mi6 mi6 mi6 mi6 mi6 mi6 mi6 mi6 mi6 mi6 mi6 mi4 mi6 mi6 mi6 mi6 mi6 mi6 mi6 mi6 mi6 mi6 mi6 mi6 mi6 mi6 mi6 mi6 mi6 mi6 mi6 mi6 mi6 mi6 mi6 mi6 mi6 mi6 mi6 mi6 mi6 mi6 mi6 mi
Precipitation 0%0%0%40%8%1%0%1%1%6%1%4%14%36%72%97%97%97%97%97%77%0%4%13%17%22%26%15%15%15%14%14%6%4%4%4%4%4%4%0%0%0%0%0%0%0%0%3%
Humidity 86%84%84%79%69%57%52%47%42%37%34%31%29%50%76%85%89%86%83%83%84%86%86%85%83%83%83%79%73%67%61%55%50%46%44%42%41%41%43%49%47%48%50%50%53%57%61%67%
Dew Point 74°F73°F73°F73°F72°F71°F70°F69°F68°F66°F65°F63°F62°F67°F70°F71°F70°F68°F68°F68°F69°F69°F69°F68°F67°F67°F66°F67°F67°F68°F67°F67°F66°F66°F65°F65°F64°F63°F64°F63°F60°F59°F59°F58°F58°F58°F59°F61°F
Pressure 29.56"29.65"29.74"29.83"29.91"30"30"30"29.97"29.94"29.94"29.85"29.91"29.91"29.97"29.97"30"30.06"30.03"30.03"30"30"30"30"30"30.03"30.03"30.03"30.03"30.03"30.03"30"30"29.97"29.94"29.94"29.91"29.91"29.91"29.91"29.91"29.94"29.97"29.97"29.97"29.97"29.97"29.97"
Wind Speed 6 mph6.1 mph5.3 mph4.9 mph5.1 mph4.9 mph4.1 mph1.6 mph2.6 mph4.9 mph6.3 mph9.4 mph8.8 mph4.2 mph19.6 mph20.2 mph17.2 mph7.6 mph3.7 mph5.3 mph7.2 mph8.8 mph8.8 mph7.4 mph6.7 mph6.6 mph6.5 mph7.5 mph8.7 mph9.1 mph9.4 mph9.9 mph10.3 mph10.3 mph10.6 mph10.2 mph9.7 mph9.9 mph10.1 mph7.4 mph5.9 mph6.6 mph7.3 mph7.6 mph8 mph8.1 mph7.1 mph6.2 mph
Wind
Direction
179°
S
186°
S
195°
SSW
199°
SSW
216°
SW
220°
SW
203°
SSW
177°
S
94°
E
90°
E
71°
ENE
97°
E
98°
E
305°
NW
338°
NNW
354°
N
17°
NNE

N
259°
W
11°
N
11°
N
352°
N
333°
NNW
334°
NNW
346°
NNW
333°
NNW
336°
NNW
340°
NNW
357°
N
360°
N

N

N

N

N
10°
N
10°
N

N

N
353°
N
352°
N

N
22°
NNE
24°
NNE
22°
NNE
20°
NNE
17°
NNE
24°
NNE
35°
NE

Daily Forecast

Date High Low Precip. Humidity
Today
Aug 1

Rain
100 °F
73 °F
97%
42%
Monday
Aug 2

Rain
91 °F
72 °F
97%
50%
Tuesday
Aug 3

Clear
87 °F
72 °F
9%
43%
Wednesday
Aug 4

Clouds
93 °F
72 °F
0%
38%
Thursday
Aug 5

Clouds
93 °F
72 °F
0%
35%
Friday
Aug 6

Clear
97 °F
74 °F
0%
40%
Saturday
Aug 7

Clear
98 °F
76 °F
0%
39%
Sunday
Aug 8

Clear
99 °F
77 °F
0%
41%
Monday
Aug 9

Clouds
100 °F
77 °F
0%
41%
Tuesday
Aug 10

Clear
101 °F
76 °F
0%
36%
Wednesday
Aug 11

Clouds
100 °F
77 °F
0%
37%
Thursday
Aug 12

Rain
99 °F
79 °F
66%
39%
Friday
Aug 13

Rain
94 °F
74 °F
100%
45%
Saturday
Aug 14

Rain
79 °F
76 °F
96%
78%
Sunday
Aug 15

Rain
85 °F
74 °F
48%
61%
Monday
Aug 16

Rain
81 °F
73 °F
88%
92%

Temperature 8-14 Day Outlook



Precipitation 8-14 Day Outlook




Quick Links
Lake Pat Cleburne News
Lake Pat Cleburne Photos
Lake Pat Cleburne Videos




About Us
Contact Us
Site Map
Search Site
Advertise With Us
   
PatCleburne.LakesOnline.com
THE LAKE PAT CLEBURNE WEBSITE

Copyright 2021, Lakes Online
Privacy    |    Legal